Time,TemperatureF,DewpointF,PressureIn,WindDirection,WindDirectionDegrees,WindSpeedMPH,WindSpeedGustMPH,Humidity,HourlyPrecipIn,Conditions,Clouds,dailyrainin,SolarRadiationWatts/m^2,SoftwareType,DateUTC
2013-02-19 00:02:00,46.9,39.6,29.97,SW,216,0.0,10.0,74,0.00,,,0.00,0.0,meteohub,2013-02-19 08:02:00,
2013-02-19 00:07:00,46.9,39.6,29.97,West,275,0.0,10.0,74,0.00,,,0.00,0.0,meteohub,2013-02-19 08:07:00,
2013-02-19 00:12:00,46.9,39.6,29.97,NW,317,1.0,6.0,74,0.00,,,0.00,0.0,meteohub,2013-02-19 08:12:00,
2013-02-19 00:17:00,46.9,39.6,29.97,West,269,1.0,6.0,74,0.00,,,0.00,0.0,meteohub,2013-02-19 08:17:00,
2013-02-19 00:22:00,46.9,39.6,29.97,SW,233,1.0,5.0,74,0.00,,,0.00,0.0,meteohub,2013-02-19 08:22:00,
2013-02-19 00:27:00,46.8,39.0,29.97,SSW,201,0.0,5.0,73,0.00,,,0.00,0.0,meteohub,2013-02-19 08:27:00,
2013-02-19 00:32:00,46.6,38.5,29.97,SW,224,1.0,4.0,72,0.00,,,0.00,0.0,meteohub,2013-02-19 08:32:00,
2013-02-19 00:37:00,46.6,38.1,29.97,SW,219,1.0,7.0,71,0.00,,,0.00,0.0,meteohub,2013-02-19 08:37:00,
2013-02-19 00:42:00,46.6,38.1,29.97,SW,225,3.0,11.0,71,0.00,,,0.00,0.0,meteohub,2013-02-19 08:42:00,
2013-02-19 00:47:00,46.6,38.1,29.97,SW,234,2.0,11.0,71,0.00,,,0.00,0.0,meteohub,2013-02-19 08:47:00,
2013-02-19 00:53:00,45.4,36.0,29.96,South,182,3.0,7.0,71,0.00,,,0.00,0,weatherlink.com 1.10,2013-02-19 08:53:00,
2013-02-19 00:58:00,46.8,38.3,29.97,SW,233,1.0,8.0,71,0.00,,,0.00,0.0,meteohub,2013-02-19 08:58:00,
2013-02-19 01:03:00,46.9,38.5,29.97,SW,227,3.0,11.0,71,0.00,,,0.00,0.0,meteohub,2013-02-19 09:03:00,
2013-02-19 01:08:00,46.9,38.5,29.97,West,265,3.0,11.0,71,0.00,,,0.00,0.0,meteohub,2013-02-19 09:08:00,
2013-02-19 01:13:00,47.1,38.7,29.97,West,270,7.0,11.0,71,0.00,,,0.00,0.0,meteohub,2013-02-19 09:13:00,
2013-02-19 01:18:00,47.1,38.7,29.97,SSW,210,5.0,10.0,71,0.00,,,0.00,0.0,meteohub,2013-02-19 09:18:00,
2013-02-19 01:23:00,47.1,38.7,29.97,West,274,4.0,10.0,71,0.00,,,0.00,0.0,meteohub,2013-02-19 09:23:00,
2013-02-19 01:28:00,47.1,38.7,29.97,SW,217,2.0,9.0,71,0.00,,,0.00,0.0,meteohub,2013-02-19 09:28:00,
2013-02-19 01:33:00,47.1,38.7,29.97,WSW,241,3.0,7.0,71,0.00,,,0.00,0.0,meteohub,2013-02-19 09:33:00,
2013-02-19 01:38:00,47.1,38.7,29.97,SW,231,3.0,8.0,71,0.00,,,0.00,0.0,meteohub,2013-02-19 09:38:00,
2013-02-19 01:43:00,47.1,39.0,29.97,WSW,241,2.0,8.0,72,0.00,,,0.00,0.0,meteohub,2013-02-19 09:43:00,
2013-02-19 01:49:00,47.1,39.0,29.97,SW,221,3.0,6.0,72,0.00,,,0.00,0.0,meteohub,2013-02-19 09:49:00,
2013-02-19 01:54:00,47.1,39.4,29.97,West,273,1.0,6.0,73,0.00,,,0.00,0.0,meteohub,2013-02-19 09:54:00,
2013-02-19 01:59:00,47.1,39.4,29.96,SW,221,1.0,6.0,73,0.00,,,0.00,0.0,meteohub,2013-02-19 09:59:00,
2013-02-19 02:04:00,47.1,39.7,29.96,SW,234,0.0,6.0,74,0.00,,,0.00,0.0,meteohub,2013-02-19 10:04:00,
2013-02-19 02:09:00,47.1,39.7,29.96,West,271,3.0,6.0,74,0.00,,,0.00,0.0,meteohub,2013-02-19 10:09:00,
2013-02-19 02:14:00,47.1,39.9,29.96,SW,216,0.0,6.0,75,0.00,,,0.00,0.0,meteohub,2013-02-19 10:14:00,
2013-02-19 02:19:00,47.1,39.9,29.96,SSW,211,3.0,6.0,75,0.00,,,0.00,0.0,meteohub,2013-02-19 10:19:00,
2013-02-19 02:24:00,47.1,39.9,29.95,SW,226,3.0,6.0,75,0.00,,,0.00,0.0,meteohub,2013-02-19 10:24:00,
2013-02-19 02:30:00,46.9,39.9,29.95,SSW,212,4.0,8.0,75,0.00,,,0.00,0.0,meteohub,2013-02-19 10:30:00,
2013-02-19 02:35:00,46.9,40.1,29.95,SW,227,0.0,8.0,76,0.00,,,0.00,0.0,meteohub,2013-02-19 10:35:00,
2013-02-19 02:40:00,46.9,40.3,29.95,WNW,300,5.0,8.0,77,0.00,,,0.00,0.0,meteohub,2013-02-19 10:40:00,
2013-02-19 02:45:00,46.8,40.5,29.95,West,265,2.0,9.0,78,0.00,,,0.00,0.0,meteohub,2013-02-19 10:45:00,
2013-02-19 02:50:00,46.6,40.3,29.95,West,274,0.0,9.0,78,0.00,,,0.00,0.0,meteohub,2013-02-19 10:50:00,
2013-02-19 02:55:00,46.4,40.3,29.94,SW,217,2.0,9.0,78,0.00,,,0.00,0.0,meteohub,2013-02-19 10:55:00,
2013-02-19 03:00:00,46.4,40.3,29.94,SW,217,0.0,8.0,78,0.00,,,0.00,0.0,meteohub,2013-02-19 11:00:00,
2013-02-19 03:05:00,46.2,40.1,29.94,SW,217,1.0,5.0,78,0.00,,,0.00,0.0,meteohub,2013-02-19 11:05:00,
2013-02-19 03:10:00,46.2,40.1,29.94,SW,217,0.0,5.0,78,0.00,,,0.00,0.0,meteohub,2013-02-19 11:10:00,
2013-02-19 03:15:00,46.0,40.3,29.94,SW,217,0.0,2.0,79,0.00,,,0.00,0.0,meteohub,2013-02-19 11:15:00,
2013-02-19 03:21:00,45.9,40.1,29.94,SW,217,0.0,2.0,79,0.00,,,0.00,0.0,meteohub,2013-02-19 11:21:00,
2013-02-19 03:26:00,45.7,39.9,29.94,SW,229,1.0,2.0,79,0.00,,,0.00,0.0,meteohub,2013-02-19 11:26:00,
2013-02-19 03:31:00,45.5,39.7,29.94,SW,229,1.0,3.0,79,0.00,,,0.00,0.0,meteohub,2013-02-19 11:31:00,
2013-02-19 03:36:00,45.3,39.9,29.93,SW,226,0.0,3.0,80,0.00,,,0.00,0.0,meteohub,2013-02-19 11:36:00,
2013-02-19 03:41:00,45.3,39.9,29.93,SW,226,0.0,3.0,80,0.00,,,0.00,0.0,meteohub,2013-02-19 11:41:00,
2013-02-19 03:46:00,45.1,39.7,29.93,SW,226,0.0,3.0,80,0.00,,,0.00,0.0,meteohub,2013-02-19 11:46:00,
2013-02-19 03:51:00,45.1,40.1,29.93,SW,226,0.0,4.0,81,0.00,,,0.00,0.0,meteohub,2013-02-19 11:51:00,
2013-02-19 03:57:00,45.1,40.1,29.93,SW,226,0.0,4.0,81,0.00,,,0.00,0.0,meteohub,2013-02-19 11:57:00,
2013-02-19 04:02:00,45.1,40.1,29.93,SW,226,0.0,4.0,81,0.00,,,0.00,0.0,meteohub,2013-02-19 12:02:00,
2013-02-19 04:07:00,45.1,40.1,29.93,SW,226,0.0,4.0,81,0.00,,,0.00,0.0,meteohub,2013-02-19 12:07:00,
2013-02-19 04:12:00,45.3,40.3,29.93,SSW,196,1.0,2.0,82,0.00,,,0.00,0.0,meteohub,2013-02-19 12:12:00,
2013-02-19 04:17:00,45.3,40.3,29.93,SSW,196,0.0,4.0,82,0.00,,,0.00,0.0,meteohub,2013-02-19 12:17:00,
2013-02-19 04:22:00,45.3,40.3,29.93,South,182,2.0,4.0,82,0.00,,,0.00,0.0,meteohub,2013-02-19 12:22:00,
2013-02-19 04:27:00,45.3,40.6,29.93,SSW,207,3.0,6.0,83,0.00,,,0.00,0.0,meteohub,2013-02-19 12:27:00,
2013-02-19 04:32:00,45.5,40.8,29.93,SW,234,1.0,6.0,83,0.00,,,0.00,0.0,meteohub,2013-02-19 12:32:00,
2013-02-19 04:37:00,45.5,40.8,29.93,SSW,209,2.0,6.0,83,0.00,,,0.00,0.0,meteohub,2013-02-19 12:37:00,
2013-02-19 04:42:00,45.5,41.2,29.93,South,189,1.0,6.0,84,0.00,,,0.00,0.0,meteohub,2013-02-19 12:42:00,
2013-02-19 04:47:00,45.5,41.5,29.93,SSW,205,1.0,6.0,85,0.00,,,0.00,0.0,meteohub,2013-02-19 12:47:00,
2013-02-19 04:52:00,45.5,41.5,29.93,South,185,2.0,6.0,85,0.00,,,0.00,0.0,meteohub,2013-02-19 12:52:00,
2013-02-19 04:57:00,45.5,41.5,29.93,South,185,1.0,6.0,85,0.00,,,0.00,0.0,meteohub,2013-02-19 12:57:00,
2013-02-19 05:02:00,45.5,41.7,29.92,South,182,2.0,4.0,86,0.00,,,0.00,0.0,meteohub,2013-02-19 13:02:00,
2013-02-19 05:07:00,45.3,41.5,29.92,South,182,1.0,3.0,86,0.00,,,0.00,0.0,meteohub,2013-02-19 13:07:00,
2013-02-19 05:12:00,45.3,41.5,29.92,South,172,1.0,3.0,86,0.00,,,0.00,0.0,meteohub,2013-02-19 13:12:00,
2013-02-19 05:17:00,45.3,41.5,29.92,SSE,162,3.0,3.0,86,0.00,,,0.00,0.0,meteohub,2013-02-19 13:17:00,
2013-02-19 05:22:00,45.3,41.5,29.92,SSE,157,0.0,4.0,86,0.00,,,0.00,0.0,meteohub,2013-02-19 13:22:00,
2013-02-19 05:27:00,45.3,41.9,29.92,South,173,2.0,4.0,87,0.00,,,0.00,0.0,meteohub,2013-02-19 13:27:00,
2013-02-19 05:32:00,45.1,41.7,29.92,South,186,0.0,4.0,87,0.00,,,0.00,0.0,meteohub,2013-02-19 13:32:00,
2013-02-19 05:37:00,45.1,41.7,29.92,South,186,2.0,4.0,87,0.00,,,0.00,0.0,meteohub,2013-02-19 13:37:00,
2013-02-19 05:42:00,45.1,41.7,29.91,South,190,0.0,5.0,87,0.00,,,0.00,0.0,meteohub,2013-02-19 13:42:00,
2013-02-19 05:47:00,45.1,41.7,29.91,SSE,163,2.0,5.0,87,0.00,,,0.00,0.0,meteohub,2013-02-19 13:47:00,
2013-02-19 05:52:00,45.1,41.7,29.91,SE,145,4.0,5.0,87,0.00,,,0.00,0.0,meteohub,2013-02-19 13:52:00,
2013-02-19 05:57:00,45.1,41.7,29.91,South,185,1.0,6.0,87,0.00,,,0.00,0.0,meteohub,2013-02-19 13:57:00,
2013-02-19 06:02:00,45.0,41.5,29.91,South,184,2.0,6.0,87,0.00,,,0.00,0.0,meteohub,2013-02-19 14:02:00,
2013-02-19 06:07:00,45.0,41.2,29.90,South,182,0.0,6.0,86,0.00,,,0.00,0.0,meteohub,2013-02-19 14:07:00,
2013-02-19 06:12:00,45.0,41.5,29.90,South,180,0.0,5.0,87,0.00,,,0.00,0.0,meteohub,2013-02-19 14:12:00,
2013-02-19 06:17:00,44.8,41.4,29.90,South,180,0.0,3.0,87,0.00,,,0.00,0.0,meteohub,2013-02-19 14:17:00,
2013-02-19 06:22:00,44.8,41.4,29.90,South,180,1.0,3.0,87,0.00,,,0.00,0.0,meteohub,2013-02-19 14:22:00,
2013-02-19 06:27:00,44.8,41.0,29.90,South,174,1.0,3.0,86,0.00,,,0.00,0.0,meteohub,2013-02-19 14:27:00,
2013-02-19 06:32:00,44.8,41.0,29.89,SSE,163,5.0,5.0,86,0.00,,,0.00,0.0,meteohub,2013-02-19 14:32:00,
2013-02-19 06:37:00,44.8,41.0,29.89,South,179,1.0,5.0,86,0.00,,,0.00,0.0,meteohub,2013-02-19 14:37:00,
2013-02-19 06:42:00,45.1,41.2,29.89,SSE,166,6.0,9.0,85,0.00,,,0.00,0.0,meteohub,2013-02-19 14:42:00,
2013-02-19 06:47:00,45.3,41.4,29.89,South,182,3.0,9.0,85,0.00,,,0.00,0.0,meteohub,2013-02-19 14:47:00,
2013-02-19 06:52:00,45.3,41.4,29.89,SSE,164,4.0,8.0,85,0.00,,,0.00,0.0,meteohub,2013-02-19 14:52:00,
2013-02-19 06:57:00,45.3,41.5,29.88,South,179,1.0,9.0,86,0.00,,,0.00,5.0,meteohub,2013-02-19 14:57:00,
2013-02-19 07:02:00,45.5,41.7,29.89,SSW,195,5.0,10.0,86,0.01,,,0.01,0.0,meteohub,2013-02-19 15:02:00,
2013-02-19 07:07:00,45.3,41.5,29.89,South,191,2.0,10.0,86,0.01,,,0.01,0.0,meteohub,2013-02-19 15:07:00,
2013-02-19 07:12:00,45.3,41.9,29.89,SSW,210,0.0,8.0,87,0.01,,,0.01,0.0,meteohub,2013-02-19 15:12:00,
2013-02-19 07:17:00,45.3,41.9,29.89,SSW,208,3.0,7.0,87,0.02,,,0.02,0.0,meteohub,2013-02-19 15:17:00,
2013-02-19 07:22:00,45.3,41.9,29.89,South,170,2.0,6.0,87,0.02,,,0.02,9.0,meteohub,2013-02-19 15:22:00,
2013-02-19 07:27:00,45.1,42.1,29.88,South,188,4.0,6.0,88,0.02,,,0.02,16.0,meteohub,2013-02-19 15:27:00,
2013-02-19 07:32:00,45.1,42.1,29.88,SE,142,2.0,6.0,88,0.03,,,0.03,21.0,meteohub,2013-02-19 15:32:00,
2013-02-19 07:37:00,45.0,42.1,29.88,South,175,0.0,6.0,89,0.03,,,0.03,23.0,meteohub,2013-02-19 15:37:00,
2013-02-19 07:42:00,44.8,41.9,29.88,SSE,148,5.0,6.0,89,0.03,,,0.03,21.0,meteohub,2013-02-19 15:42:00,
2013-02-19 07:47:00,44.8,41.9,29.88,SSE,153,1.0,6.0,89,0.03,,,0.03,23.0,meteohub,2013-02-19 15:47:00,
2013-02-19 07:52:00,44.8,42.3,29.88,SSE,165,3.0,6.0,90,0.03,,,0.03,32.0,meteohub,2013-02-19 15:52:00,
2013-02-19 07:57:00,44.8,42.3,29.87,SSE,159,2.0,6.0,90,0.03,,,0.03,40.0,meteohub,2013-02-19 15:57:00,
2013-02-19 08:02:00,44.8,42.3,29.87,South,170,2.0,8.0,90,0.02,,,0.03,46.0,meteohub,2013-02-19 16:02:00,
2013-02-19 08:07:00,44.8,42.3,29.87,SSE,147,3.0,8.0,90,0.02,,,0.03,51.0,meteohub,2013-02-19 16:07:00,
2013-02-19 08:12:00,44.8,42.3,29.87,SE,139,7.0,8.0,90,0.01,,,0.03,54.0,meteohub,2013-02-19 16:12:00,
2013-02-19 08:17:00,44.8,42.3,29.86,South,181,4.0,10.0,90,0.01,,,0.03,46.0,meteohub,2013-02-19 16:17:00,
2013-02-19 08:22:00,44.8,42.3,29.86,SSE,156,5.0,10.0,90,0.01,,,0.03,40.0,meteohub,2013-02-19 16:22:00,
2013-02-19 08:27:00,45.0,42.4,29.86,South,170,3.0,9.0,90,0.01,,,0.03,53.0,meteohub,2013-02-19 16:27:00,
2013-02-19 08:32:00,45.0,42.4,29.86,SW,215,1.0,8.0,90,0.00,,,0.03,60.0,meteohub,2013-02-19 16:32:00,
2013-02-19 08:37:00,45.1,42.6,29.86,SSE,154,3.0,7.0,90,0.00,,,0.03,76.0,meteohub,2013-02-19 16:37:00,
2013-02-19 08:42:00,45.1,42.6,29.86,SSE,160,1.0,7.0,90,0.00,,,0.03,65.0,meteohub,2013-02-19 16:42:00,
2013-02-19 08:47:00,45.3,42.8,29.86,SSE,157,3.0,7.0,90,0.00,,,0.03,77.0,meteohub,2013-02-19 16:47:00,
2013-02-19 08:52:00,45.3,42.8,29.86,SSE,165,1.0,5.0,90,0.00,,,0.03,90.0,meteohub,2013-02-19 16:52:00,
2013-02-19 08:57:00,45.5,43.0,29.85,SSW,211,1.0,4.0,90,0.00,,,0.03,77.0,meteohub,2013-02-19 16:57:00,
2013-02-19 09:02:00,45.7,43.2,29.85,South,171,3.0,6.0,90,0.00,,,0.03,114.0,meteohub,2013-02-19 17:02:00,
2013-02-19 09:07:00,45.9,43.3,29.84,SW,219,6.0,6.0,90,0.00,,,0.03,156.0,meteohub,2013-02-19 17:07:00,
2013-02-19 09:12:00,46.2,43.3,29.84,SE,141,4.0,8.0,89,0.00,,,0.03,193.0,meteohub,2013-02-19 17:12:00,
2013-02-19 09:17:00,46.4,43.5,29.83,SE,146,9.0,12.0,89,0.00,,,0.03,151.0,meteohub,2013-02-19 17:17:00,
2013-02-19 09:22:00,46.8,43.3,29.83,South,176,10.0,12.0,87,0.00,,,0.03,171.0,meteohub,2013-02-19 17:22:00,
2013-02-19 09:27:00,47.1,43.3,29.83,SSE,154,3.0,12.0,86,0.00,,,0.03,243.0,meteohub,2013-02-19 17:27:00,
2013-02-19 09:32:00,47.5,43.7,29.83,SSE,153,3.0,15.0,86,0.00,,,0.03,127.0,meteohub,2013-02-19 17:32:00,
2013-02-19 09:37:00,47.8,43.7,29.83,South,174,2.0,15.0,85,0.00,,,0.03,148.0,meteohub,2013-02-19 17:37:00,
2013-02-19 09:42:00,47.8,43.7,29.83,SSE,155,6.0,15.0,85,0.00,,,0.03,139.0,meteohub,2013-02-19 17:42:00,
2013-02-19 09:47:00,47.8,43.7,29.82,SE,135,6.0,11.0,85,0.00,,,0.03,297.0,meteohub,2013-02-19 17:47:00,
2013-02-19 09:52:00,48.0,43.9,29.82,South,175,3.0,11.0,85,0.00,,,0.03,211.0,meteohub,2013-02-19 17:52:00,
2013-02-19 09:57:00,48.0,43.7,29.83,South,176,5.0,11.0,84,0.00,,,0.03,53.0,meteohub,2013-02-19 17:57:00,
2013-02-19 10:02:00,48.0,43.7,29.82,South,184,4.0,11.0,84,0.00,,,0.03,26.0,meteohub,2013-02-19 18:02:00,
2013-02-19 10:07:00,47.8,43.5,29.83,SW,216,7.0,10.0,84,0.01,,,0.04,19.0,meteohub,2013-02-19 18:07:00,
2013-02-19 10:12:00,47.5,43.3,29.83,SSW,211,4.0,11.0,85,0.03,,,0.06,19.0,meteohub,2013-02-19 18:12:00,
2013-02-19 10:17:00,47.3,43.5,29.83,SSW,197,3.0,11.0,86,0.05,,,0.07,21.0,meteohub,2013-02-19 18:17:00,
2013-02-19 10:22:00,46.9,43.5,29.83,SSW,203,1.0,11.0,87,0.07,,,0.10,21.0,meteohub,2013-02-19 18:22:00,
2013-02-19 10:27:00,46.8,43.5,29.83,SW,214,5.0,7.0,88,0.09,,,0.12,19.0,meteohub,2013-02-19 18:27:00,
2013-02-19 10:32:00,46.2,42.8,29.84,SW,220,1.0,13.0,87,0.12,,,0.14,21.0,meteohub,2013-02-19 18:32:00,
2013-02-19 10:37:00,45.7,41.9,29.84,SSW,202,0.0,13.0,86,0.13,,,0.16,19.0,meteohub,2013-02-19 18:37:00,
2013-02-19 10:42:00,45.0,41.2,29.83,SSW,192,0.0,13.0,86,0.16,,,0.19,19.0,meteohub,2013-02-19 18:42:00,
2013-02-19 10:47:00,44.6,41.2,29.84,SW,221,5.0,11.0,87,0.17,,,0.20,32.0,meteohub,2013-02-19 18:47:00,
2013-02-19 10:52:00,44.4,41.2,29.84,SW,223,2.0,11.0,88,0.20,,,0.23,39.0,meteohub,2013-02-19 18:52:00,
2013-02-19 10:57:00,44.1,40.8,29.83,West,271,4.0,9.0,88,0.23,,,0.26,39.0,meteohub,2013-02-19 18:57:00,
2013-02-19 11:02:00,44.1,41.0,29.83,SW,228,4.0,9.0,89,0.24,,,0.27,26.0,meteohub,2013-02-19 19:02:00,
2013-02-19 11:07:00,43.9,40.8,29.83,SW,230,2.0,9.0,89,0.24,,,0.29,25.0,meteohub,2013-02-19 19:07:00,
2013-02-19 11:12:00,43.9,41.2,29.83,SW,227,0.0,9.0,90,0.24,,,0.29,28.0,meteohub,2013-02-19 19:12:00,
2013-02-19 11:17:00,43.9,41.2,29.83,SW,227,0.0,6.0,90,0.22,,,0.31,33.0,meteohub,2013-02-19 19:17:00,
2013-02-19 11:22:00,43.9,41.2,29.83,NW,306,1.0,3.0,90,0.21,,,0.32,32.0,meteohub,2013-02-19 19:22:00,
2013-02-19 11:27:00,43.9,41.2,29.83,WNW,293,5.0,5.0,90,0.20,,,0.33,72.0,meteohub,2013-02-19 19:27:00,
2013-02-19 11:32:00,43.7,40.6,29.83,NNW,340,2.0,5.0,89,0.20,,,0.35,156.0,meteohub,2013-02-19 19:32:00,
2013-02-19 11:37:00,43.7,41.0,29.83,NW,320,5.0,5.0,90,0.18,,,0.35,123.0,meteohub,2013-02-19 19:37:00,
2013-02-19 11:42:00,43.5,40.5,29.82,WNW,285,3.0,8.0,89,0.17,,,0.36,116.0,meteohub,2013-02-19 19:42:00,
2013-02-19 11:47:00,43.3,40.3,29.82,NNW,336,1.0,8.0,89,0.15,,,0.36,100.0,meteohub,2013-02-19 19:47:00,
2013-02-19 11:52:00,43.2,40.3,29.82,NNW,340,4.0,7.0,89,0.13,,,0.37,167.0,meteohub,2013-02-19 19:52:00,
2013-02-19 11:57:00,43.2,40.3,29.82,NNW,329,0.0,7.0,89,0.10,,,0.37,186.0,meteohub,2013-02-19 19:57:00,
2013-02-19 12:02:00,43.2,40.3,29.82,NNW,331,0.0,7.0,89,0.09,,,0.37,183.0,meteohub,2013-02-19 20:02:00,
2013-02-19 12:07:00,43.3,40.6,29.81,NNW,331,1.0,7.0,90,0.08,,,0.37,130.0,meteohub,2013-02-19 20:07:00,
2013-02-19 12:12:00,43.5,40.8,29.81,WNW,285,0.0,3.0,90,0.07,,,0.37,128.0,meteohub,2013-02-19 20:12:00,
2013-02-19 12:17:00,43.5,40.8,29.81,WNW,285,0.0,3.0,90,0.06,,,0.37,149.0,meteohub,2013-02-19 20:17:00,
2013-02-19 12:22:00,43.5,40.8,29.81,WNW,285,1.0,3.0,90,0.05,,,0.37,148.0,meteohub,2013-02-19 20:22:00,
2013-02-19 12:27:00,43.9,41.2,29.80,SSE,168,0.0,4.0,90,0.03,,,0.37,241.0,meteohub,2013-02-19 20:27:00,
2013-02-19 12:32:00,43.9,41.2,29.80,SSE,168,0.0,4.0,90,0.02,,,0.37,279.0,meteohub,2013-02-19 20:32:00,
2013-02-19 12:37:00,44.2,41.7,29.80,SSE,153,2.0,4.0,91,0.02,,,0.38,257.0,meteohub,2013-02-19 20:37:00,
2013-02-19 12:42:00,44.4,41.9,29.80,SSE,155,0.0,4.0,91,0.02,,,0.38,192.0,meteohub,2013-02-19 20:42:00,
2013-02-19 12:47:00,44.6,41.9,29.80,SE,144,2.0,4.0,90,0.01,,,0.38,142.0,meteohub,2013-02-19 20:47:00,
2013-02-19 12:52:00,44.6,42.1,29.79,SE,137,2.0,4.0,90,0.01,,,0.38,135.0,meteohub,2013-02-19 20:52:00,
2013-02-19 12:57:00,44.6,42.1,29.80,SE,138,0.0,4.0,90,0.01,,,0.38,26.0,meteohub,2013-02-19 20:57:00,
2013-02-19 13:02:00,44.6,42.1,29.82,NNW,327,4.0,4.0,90,0.02,,,0.39,21.0,meteohub,2013-02-19 21:02:00,
2013-02-19 13:07:00,43.7,39.9,29.81,WNW,285,4.0,11.0,86,0.07,,,0.44,47.0,meteohub,2013-02-19 21:07:00,
2013-02-19 13:12:00,42.8,39.2,29.81,WNW,300,2.0,11.0,86,0.07,,,0.44,62.0,meteohub,2013-02-19 21:12:00,
2013-02-19 13:17:00,42.3,38.8,29.81,West,270,4.0,11.0,87,0.07,,,0.44,90.0,meteohub,2013-02-19 21:17:00,
2013-02-19 13:22:00,42.1,39.0,29.80,WNW,290,3.0,11.0,88,0.07,,,0.44,116.0,meteohub,2013-02-19 21:22:00,
2013-02-19 13:27:00,42.1,39.0,29.80,West,263,2.0,11.0,88,0.08,,,0.45,104.0,meteohub,2013-02-19 21:27:00,
2013-02-19 13:32:00,42.1,39.2,29.81,WNW,284,7.0,11.0,89,0.07,,,0.45,84.0,meteohub,2013-02-19 21:32:00,
2013-02-19 13:37:00,41.9,39.0,29.80,NW,325,2.0,10.0,89,0.08,,,0.46,130.0,meteohub,2013-02-19 21:37:00,
2013-02-19 13:42:00,42.1,39.6,29.80,WNW,294,2.0,10.0,90,0.08,,,0.46,116.0,meteohub,2013-02-19 21:42:00,
2013-02-19 13:47:00,42.1,39.6,29.80,West,279,2.0,10.0,90,0.08,,,0.46,83.0,meteohub,2013-02-19 21:47:00,
2013-02-19 13:52:00,42.1,39.6,29.80,NW,317,0.0,9.0,90,0.08,,,0.46,142.0,meteohub,2013-02-19 21:52:00,
2013-02-19 13:57:00,42.3,39.7,29.79,West,259,3.0,9.0,90,0.08,,,0.47,104.0,meteohub,2013-02-19 21:57:00,
2013-02-19 14:02:00,42.3,39.4,29.79,West,278,1.0,7.0,89,0.07,,,0.47,102.0,meteohub,2013-02-19 22:02:00,
2013-02-19 14:08:00,42.3,39.4,29.79,West,276,1.0,7.0,89,0.03,,,0.47,107.0,meteohub,2013-02-19 22:08:00,
2013-02-19 14:13:00,42.4,39.9,29.78,SW,226,2.0,11.0,90,0.03,,,0.47,315.0,meteohub,2013-02-19 22:13:00,
2013-02-19 14:18:00,42.8,40.3,29.77,West,260,5.0,11.0,90,0.03,,,0.47,752.0,meteohub,2013-02-19 22:18:00,
2013-02-19 14:23:00,43.5,40.5,29.78,SW,229,3.0,4.0,89,0.02,,,0.47,603.0,meteohub,2013-02-19 22:23:00,
2013-02-19 14:28:00,44.2,41.0,29.77,WNW,286,5.0,7.0,88,0.02,,,0.47,540.0,meteohub,2013-02-19 22:28:00,
2013-02-19 14:33:00,44.6,41.2,29.77,SSW,203,5.0,8.0,87,0.02,,,0.47,531.0,meteohub,2013-02-19 22:33:00,
2013-02-19 14:38:00,44.2,40.0,29.76,SSW,211,5.0,11.0,85,0.01,,,0.47,531,weatherlink.com 1.10,2013-02-19 22:38:00,
2013-02-19 14:43:00,46.0,41.0,29.77,West,263,5.0,11.0,82,0.01,,,0.47,533.0,meteohub,2013-02-19 22:43:00,
2013-02-19 14:48:00,46.2,40.6,29.77,West,277,3.0,13.0,80,0.01,,,0.47,559.0,meteohub,2013-02-19 22:48:00,
2013-02-19 14:53:00,46.2,40.6,29.77,West,265,2.0,13.0,80,0.01,,,0.47,251.0,meteohub,2013-02-19 22:53:00,
2013-02-19 14:58:00,46.6,41.5,29.77,SW,235,1.0,13.0,82,0.00,,,0.47,176.0,meteohub,2013-02-19 22:58:00,
2013-02-19 15:04:00,46.9,41.5,29.77,WNW,297,2.0,11.0,81,0.00,,,0.47,480.0,meteohub,2013-02-19 23:04:00,
2013-02-19 15:09:00,47.3,41.7,29.76,WSW,250,6.0,10.0,80,0.00,,,0.47,411.0,meteohub,2013-02-19 23:09:00,
2013-02-19 15:14:00,47.3,41.4,29.77,SW,234,6.0,11.0,79,0.00,,,0.47,132.0,meteohub,2013-02-19 23:14:00,
2013-02-19 15:19:00,47.1,41.2,29.76,SW,217,7.0,11.0,79,0.00,,,0.47,269.0,meteohub,2013-02-19 23:19:00,
2013-02-19 15:24:00,47.1,41.5,29.76,SSW,207,0.0,11.0,80,0.00,,,0.47,251.0,meteohub,2013-02-19 23:24:00,
2013-02-19 15:29:00,47.3,41.7,29.76,WSW,248,4.0,10.0,80,0.00,,,0.47,225.0,meteohub,2013-02-19 23:29:00,
2013-02-19 15:34:00,47.3,41.4,29.76,SSW,192,2.0,10.0,79,0.00,,,0.47,102.0,meteohub,2013-02-19 23:34:00,
2013-02-19 15:39:00,47.1,40.8,29.75,West,277,2.0,9.0,78,0.00,,,0.47,98.0,meteohub,2013-02-19 23:39:00,
2013-02-19 15:44:00,46.9,40.1,29.75,WNW,296,2.0,7.0,76,0.00,,,0.47,72.0,meteohub,2013-02-19 23:44:00,
2013-02-19 15:49:00,46.6,40.6,29.75,NNW,341,4.0,7.0,79,0.00,,,0.47,63.0,meteohub,2013-02-19 23:49:00,
2013-02-19 15:54:00,46.0,40.3,29.76,WNW,303,3.0,8.0,79,0.00,,,0.47,105.0,meteohub,2013-02-19 23:54:00,
2013-02-19 15:59:00,45.7,40.5,29.75,NNW,340,1.0,8.0,81,0.00,,,0.47,401.0,meteohub,2013-02-19 23:59:00,
2013-02-19 16:04:00,45.5,40.5,29.75,WNW,297,0.0,8.0,82,0.02,,,0.49,141.0,meteohub,2013-02-20 00:04:00,
2013-02-19 16:10:00,45.5,40.5,29.76,NW,306,3.0,7.0,82,0.02,,,0.00,121.0,meteohub,2013-02-20 00:10:00,
2013-02-19 16:15:00,45.5,40.8,29.76,West,275,2.0,9.0,83,0.02,,,0.00,46.0,meteohub,2013-02-20 00:15:00,
2013-02-19 16:20:00,45.3,39.6,29.75,West,269,4.0,9.0,79,0.02,,,0.00,32.0,meteohub,2013-02-20 00:20:00,
2013-02-19 16:25:00,45.3,39.0,29.75,WNW,294,3.0,12.0,77,0.02,,,0.00,35.0,meteohub,2013-02-20 00:25:00,
2013-02-19 16:30:00,45.1,38.1,29.75,WNW,286,5.0,12.0,75,0.02,,,0.00,30.0,meteohub,2013-02-20 00:30:00,
2013-02-19 16:35:00,44.8,37.8,29.75,West,275,7.0,12.0,75,0.02,,,0.00,26.0,meteohub,2013-02-20 00:35:00,
2013-02-19 16:40:00,44.6,37.2,29.74,WNW,290,1.0,11.0,74,0.02,,,0.00,25.0,meteohub,2013-02-20 00:40:00,
2013-02-19 16:45:00,44.6,36.9,29.74,West,273,7.0,8.0,73,0.02,,,0.00,21.0,meteohub,2013-02-20 00:45:00,
2013-02-19 16:50:00,44.6,36.0,29.74,West,259,5.0,10.0,71,0.02,,,0.00,26.0,meteohub,2013-02-20 00:50:00,
2013-02-19 16:55:00,44.6,36.0,29.74,West,278,4.0,10.0,71,0.02,,,0.00,25.0,meteohub,2013-02-20 00:55:00,
2013-02-19 17:01:00,44.6,36.1,29.74,WNW,293,6.0,10.0,71,0.00,,,0.00,23.0,meteohub,2013-02-20 01:01:00,
2013-02-19 17:06:00,44.6,36.0,29.74,WSW,254,4.0,12.0,70,0.00,,,0.00,21.0,meteohub,2013-02-20 01:06:00,
2013-02-19 17:11:00,44.6,36.0,29.74,West,279,2.0,12.0,70,0.00,,,0.00,21.0,meteohub,2013-02-20 01:11:00,
2013-02-19 17:16:00,44.6,35.4,29.74,WNW,290,1.0,12.0,69,0.00,,,0.00,19.0,meteohub,2013-02-20 01:16:00,
2013-02-19 17:21:00,44.6,35.4,29.74,WNW,284,3.0,11.0,69,0.00,,,0.00,16.0,meteohub,2013-02-20 01:21:00,
2013-02-19 17:26:00,44.4,35.6,29.74,NW,317,2.0,8.0,70,0.00,,,0.00,16.0,meteohub,2013-02-20 01:26:00,
2013-02-19 17:31:00,42.9,34.0,29.74,WNW,286,2.0,7.0,70,0.00,,,0.49,14,weatherlink.com 1.10,2013-02-20 01:31:00,
2013-02-19 17:36:00,44.2,35.4,29.75,WNW,296,0.0,9.0,70,0.00,,,0.00,14.0,meteohub,2013-02-20 01:36:00,
2013-02-19 17:41:00,44.1,35.6,29.75,WNW,286,0.0,9.0,71,0.00,,,0.00,14.0,meteohub,2013-02-20 01:41:00,
2013-02-19 17:46:00,44.1,36.0,29.75,WNW,286,0.0,9.0,72,0.00,,,0.00,7.0,meteohub,2013-02-20 01:46:00,
2013-02-19 17:52:00,43.9,36.0,29.75,WNW,286,0.0,3.0,73,0.00,,,0.00,0.0,meteohub,2013-02-20 01:52:00,
2013-02-19 17:57:00,43.9,36.0,29.75,WNW,286,0.0,2.0,73,0.00,,,0.00,0.0,meteohub,2013-02-20 01:57:00,
2013-02-19 18:02:00,43.7,36.0,29.75,WNW,286,0.0,1.0,73,0.00,,,0.00,0.0,meteohub,2013-02-20 02:02:00,
2013-02-19 18:07:00,43.5,36.3,29.75,WNW,286,2.0,2.0,75,0.00,,,0.00,0.0,meteohub,2013-02-20 02:07:00,
2013-02-19 18:12:00,43.2,36.0,29.75,WSW,251,0.0,3.0,75,0.00,,,0.00,0.0,meteohub,2013-02-20 02:12:00,
2013-02-19 18:17:00,43.0,36.1,29.75,WSW,251,0.0,3.0,76,0.00,,,0.00,0.0,meteohub,2013-02-20 02:17:00,
2013-02-19 18:22:00,42.8,36.0,29.75,WSW,251,1.0,3.0,76,0.00,,,0.00,0.0,meteohub,2013-02-20 02:22:00,
2013-02-19 18:27:00,42.6,36.0,29.75,WNW,284,0.0,2.0,76,0.00,,,0.00,0.0,meteohub,2013-02-20 02:27:00,
2013-02-19 18:32:00,42.3,36.0,29.75,WNW,284,2.0,2.0,77,0.00,,,0.00,0.0,meteohub,2013-02-20 02:32:00,
2013-02-19 18:37:00,41.9,36.0,29.76,West,269,1.0,3.0,78,0.00,,,0.00,0.0,meteohub,2013-02-20 02:37:00,
2013-02-19 18:42:00,41.5,35.6,29.76,WNW,283,3.0,4.0,78,0.00,,,0.00,0.0,meteohub,2013-02-20 02:42:00,
2013-02-19 18:47:00,41.4,35.8,29.76,West,281,2.0,5.0,79,0.00,,,0.00,0.0,meteohub,2013-02-20 02:47:00,
2013-02-19 18:52:00,41.2,35.6,29.76,West,277,1.0,5.0,79,0.00,,,0.00,0.0,meteohub,2013-02-20 02:52:00,
2013-02-19 18:57:00,41.2,35.6,29.76,West,277,1.0,5.0,79,0.00,,,0.00,0.0,meteohub,2013-02-20 02:57:00,
2013-02-19 19:02:00,41.2,35.6,29.76,West,277,2.0,5.0,79,0.00,,,0.00,0.0,meteohub,2013-02-20 03:02:00,
2013-02-19 19:07:00,41.0,35.4,29.76,WNW,282,2.0,4.0,79,0.00,,,0.00,0.0,meteohub,2013-02-20 03:07:00,
2013-02-19 19:12:00,41.0,35.8,29.76,WNW,287,1.0,4.0,80,0.00,,,0.00,0.0,meteohub,2013-02-20 03:12:00,
2013-02-19 19:17:00,41.0,35.8,29.77,WNW,287,0.0,4.0,80,0.00,,,0.00,0.0,meteohub,2013-02-20 03:17:00,
2013-02-19 19:22:00,41.0,36.0,29.77,WNW,292,0.0,4.0,81,0.00,,,0.00,0.0,meteohub,2013-02-20 03:22:00,
2013-02-19 19:27:00,41.0,36.0,29.77,NW,325,1.0,5.0,81,0.00,,,0.00,0.0,meteohub,2013-02-20 03:27:00,
2013-02-19 19:32:00,41.0,36.0,29.77,WNW,292,5.0,5.0,81,0.00,,,0.00,0.0,meteohub,2013-02-20 03:32:00,
2013-02-19 19:37:00,41.2,36.0,29.77,West,274,5.0,8.0,80,0.00,,,0.00,0.0,meteohub,2013-02-20 03:37:00,
2013-02-19 19:42:00,41.2,36.0,29.77,NW,308,7.0,8.0,80,0.00,,,0.00,0.0,meteohub,2013-02-20 03:42:00,
2013-02-19 19:47:00,41.0,35.8,29.77,WNW,297,2.0,8.0,80,0.00,,,0.00,0.0,meteohub,2013-02-20 03:47:00,
2013-02-19 19:52:00,41.0,35.8,29.77,WNW,283,5.0,8.0,80,0.00,,,0.00,0.0,meteohub,2013-02-20 03:52:00,
2013-02-19 19:57:00,41.0,35.8,29.77,WNW,294,5.0,9.0,80,0.00,,,0.00,0.0,meteohub,2013-02-20 03:57:00,
2013-02-19 20:02:00,41.0,35.8,29.76,WNW,286,2.0,9.0,80,0.00,,,0.00,0.0,meteohub,2013-02-20 04:02:00,
2013-02-19 20:08:00,40.8,35.6,29.77,WNW,289,4.0,11.0,80,0.00,,,0.00,0.0,meteohub,2013-02-20 04:08:00,
2013-02-19 20:13:00,40.8,35.6,29.77,WNW,292,4.0,11.0,80,0.00,,,0.00,0.0,meteohub,2013-02-20 04:13:00,
2013-02-19 20:18:00,40.6,35.4,29.77,WNW,291,2.0,8.0,80,0.00,,,0.00,0.0,meteohub,2013-02-20 04:18:00,
2013-02-19 20:23:00,40.8,35.6,29.77,WNW,293,2.0,9.0,80,0.00,,,0.00,0.0,meteohub,2013-02-20 04:23:00,
2013-02-19 20:28:00,40.8,35.6,29.78,WNW,296,5.0,10.0,80,0.00,,,0.00,0.0,meteohub,2013-02-20 04:28:00,
2013-02-19 20:33:00,40.8,35.6,29.78,WNW,290,4.0,10.0,80,0.00,,,0.00,0.0,meteohub,2013-02-20 04:33:00,
2013-02-19 20:38:00,40.6,35.4,29.78,West,278,3.0,10.0,80,0.00,,,0.00,0.0,meteohub,2013-02-20 04:38:00,
2013-02-19 20:43:00,40.5,35.4,29.78,WNW,295,1.0,7.0,81,0.00,,,0.00,0.0,meteohub,2013-02-20 04:43:00,
2013-02-19 20:48:00,40.5,35.4,29.78,WNW,286,3.0,7.0,81,0.00,,,0.00,0.0,meteohub,2013-02-20 04:48:00,
2013-02-19 20:53:00,40.5,35.4,29.78,WNW,300,2.0,7.0,81,0.00,,,0.00,0.0,meteohub,2013-02-20 04:53:00,
2013-02-19 20:58:00,40.6,35.6,29.78,WNW,289,2.0,4.0,81,0.00,,,0.00,0.0,meteohub,2013-02-20 04:58:00,
2013-02-19 21:00:00,40.6,35.6,29.79,WNW,286,1.0,4.0,81,0.00,,,0.00,0.0,meteohub,2013-02-20 05:00:00,
2013-02-19 21:01:00,40.6,35.6,29.79,WNW,288,2.0,5.0,81,0.00,,,0.00,0.0,meteohub,2013-02-20 05:01:00,
2013-02-19 21:06:00,40.6,35.4,29.79,WNW,290,2.0,5.0,80,0.00,,,0.00,0.0,meteohub,2013-02-20 05:06:00,
2013-02-19 21:11:00,40.5,35.2,29.79,WNW,286,2.0,5.0,80,0.00,,,0.00,0.0,meteohub,2013-02-20 05:11:00,
2013-02-19 21:16:00,40.5,35.4,29.79,WNW,284,5.0,5.0,81,0.00,,,0.00,0.0,meteohub,2013-02-20 05:16:00,
2013-02-19 21:21:00,40.5,35.4,29.79,WNW,286,3.0,8.0,81,0.00,,,0.00,0.0,meteohub,2013-02-20 05:21:00,
2013-02-19 21:27:00,40.3,35.2,29.80,West,273,5.0,8.0,81,0.00,,,0.00,0.0,meteohub,2013-02-20 05:27:00,
2013-02-19 21:32:00,40.3,35.6,29.79,West,276,5.0,8.0,82,0.00,,,0.00,0.0,meteohub,2013-02-20 05:32:00,
2013-02-19 21:37:00,40.3,35.4,29.80,WNW,282,4.0,8.0,82,0.00,,,0.00,0.0,meteohub,2013-02-20 05:37:00,
2013-02-19 21:42:00,40.1,35.6,29.80,West,281,6.0,8.0,83,0.00,,,0.00,0.0,meteohub,2013-02-20 05:42:00,
2013-02-19 21:47:00,40.1,35.6,29.80,West,273,4.0,8.0,83,0.00,,,0.00,0.0,meteohub,2013-02-20 05:47:00,
2013-02-19 21:52:00,40.1,36.0,29.80,West,274,4.0,8.0,84,0.00,,,0.00,0.0,meteohub,2013-02-20 05:52:00,
2013-02-19 21:57:00,39.9,35.8,29.80,SSW,196,2.0,8.0,84,0.00,,,0.00,0.0,meteohub,2013-02-20 05:57:00,
2013-02-19 22:02:00,39.7,35.6,29.80,South,184,2.0,8.0,84,0.00,,,0.00,0.0,meteohub,2013-02-20 06:02:00,
2013-02-19 22:07:00,39.7,35.6,29.80,South,171,0.0,6.0,84,0.00,,,0.00,0.0,meteohub,2013-02-20 06:07:00,
2013-02-19 22:12:00,39.6,35.4,29.81,South,171,0.0,5.0,84,0.00,,,0.00,0.0,meteohub,2013-02-20 06:12:00,
2013-02-19 22:17:00,39.6,35.4,29.81,South,171,0.0,5.0,84,0.00,,,0.00,0.0,meteohub,2013-02-20 06:17:00,
2013-02-19 22:22:00,39.4,35.4,29.81,SSW,211,0.0,3.0,85,0.00,,,0.00,0.0,meteohub,2013-02-20 06:22:00,
2013-02-19 22:27:00,39.4,35.4,29.81,SSW,211,0.0,3.0,85,0.00,,,0.00,0.0,meteohub,2013-02-20 06:27:00,
2013-02-19 22:32:00,39.2,35.2,29.82,SSW,211,2.0,3.0,85,0.00,,,0.00,0.0,meteohub,2013-02-20 06:32:00,
2013-02-19 22:37:00,39.4,35.4,29.82,West,259,2.0,3.0,85,0.00,,,0.00,0.0,meteohub,2013-02-20 06:37:00,
2013-02-19 22:42:00,39.6,35.6,29.82,West,259,1.0,4.0,85,0.00,,,0.00,0.0,meteohub,2013-02-20 06:42:00,
2013-02-19 22:47:00,39.6,35.6,29.81,West,259,0.0,4.0,85,0.00,,,0.00,0.0,meteohub,2013-02-20 06:47:00,
2013-02-19 22:52:00,39.6,35.6,29.81,West,259,2.0,3.0,85,0.00,,,0.00,0.0,meteohub,2013-02-20 06:52:00,
2013-02-19 22:57:00,39.6,35.6,29.82,West,259,1.0,3.0,85,0.00,,,0.00,0.0,meteohub,2013-02-20 06:57:00,
2013-02-19 23:02:00,39.6,35.4,29.82,West,259,0.0,3.0,84,0.00,,,0.00,0.0,meteohub,2013-02-20 07:02:00,
2013-02-19 23:07:00,39.4,35.2,29.82,West,259,2.0,3.0,84,0.00,,,0.00,0.0,meteohub,2013-02-20 07:07:00,
2013-02-19 23:12:00,39.2,35.2,29.82,West,265,0.0,3.0,85,0.00,,,0.00,0.0,meteohub,2013-02-20 07:12:00,
2013-02-19 23:17:00,39.2,35.2,29.82,West,265,0.0,3.0,85,0.00,,,0.00,0.0,meteohub,2013-02-20 07:17:00,
2013-02-19 23:22:00,39.0,35.1,29.82,West,265,0.0,3.0,85,0.00,,,0.00,0.0,meteohub,2013-02-20 07:22:00,
2013-02-19 23:27:00,38.8,34.7,29.82,West,265,0.0,2.0,84,0.00,,,0.00,0.0,meteohub,2013-02-20 07:27:00,
2013-02-19 23:32:00,38.8,34.7,29.83,West,265,0.0,0.0,84,0.00,,,0.00,0.0,meteohub,2013-02-20 07:32:00,
2013-02-19 23:37:00,38.7,34.7,29.83,West,265,0.0,0.0,85,0.00,,,0.00,0.0,meteohub,2013-02-20 07:37:00,
2013-02-19 23:42:00,38.5,34.5,29.83,West,265,0.0,2.0,85,0.00,,,0.00,0.0,meteohub,2013-02-20 07:42:00,
2013-02-19 23:47:00,38.5,34.9,29.83,West,265,0.0,3.0,86,0.00,,,0.00,0.0,meteohub,2013-02-20 07:47:00,
2013-02-19 23:52:00,38.3,34.7,29.83,West,265,0.0,3.0,86,0.00,,,0.00,0.0,meteohub,2013-02-20 07:52:00,
2013-02-19 23:57:00,38.3,35.1,29.84,West,265,0.0,2.0,87,0.00,,,0.00,0.0,meteohub,2013-02-20 07:57:00,